Regional Weather Roundup
Issued by NWS

Home | Current Version | Previous Version | Text Only | Print | Product List | Glossary Off
Versions: 1 2 3 4 5 6 7 8 9 10 11 12 13 14 15 16 17 18 19 20 21 22 23 24 25 26 27 28 29 30 31 32 33 34 35 36 37 38 39 40 41 42 43 44 45 46 47 48 49 50

000
ASUS45 KCYS 310810
RWRWY

WYOMING REGIONAL WEATHER ROUNDUP
NATIONAL WEATHER SERVICE CHEYENNE WY
200 AM MDT SUN AUG 31 2014

NOTE:  "FAIR" INDICATES FEW OR NO CLOUDS BELOW 12,000 FEET
WITH NO SIGNIFICANT WEATHER AND/OR OBSTRUCTIONS TO VISIBILITY.

WYZ001-310900-
YELLOWSTONE NATIONAL PARK

CITY           SKY/WX    TMP DP  RH WIND       PRES   REMARKS
LK YELLOWSTONE   N/A     39  38  96 CALM      30.07S
W YELLOWSTONE  NOT AVBL

$$
WYZ002>013-054>058-071-098>099-310900-
NORTHERN WYOMING

CITY           SKY/WX    TMP DP  RH WIND       PRES   REMARKS
JACKSON        MOCLDY    45  43  93 N7        29.99R
CODY           CLOUDY    57  41  54 SW10G21   29.86S
GREYBULL       CLOUDY    55  54  96 SE5       29.84F
WORLAND        CLOUDY    54  52  93 SE5       29.84F
SHERIDAN       CLOUDY    52  49  89 SW6       29.82F
BUFFALO        CLOUDY    55  49  80 S5        29.86F
GILLETTE       PTCLDY    52  49  89 SW7       29.84S
HULETT         FAIR      52  50  93 MISG      29.83
NEWCASTLE      FAIR      52  50  93 N7        29.84

$$
WYZ014>020-022>026-101>103-310900-
CENTRAL WYOMING

CITY           SKY/WX    TMP DP  RH WIND       PRES   REMARKS
BIG PINEY      LGT RAIN  47  43  86 NW7       30.03F
PINEDALE       LGT RAIN  45  45 100 SE5       30.05F
DUBOIS         FAIR      46  37  71 W17       29.97F
LANDER         CLOUDY    55  46  71 VRB6      29.93F
RIVERTON       CLOUDY    54  49  83 SW5       29.92F
CASPER         MOCLDY    50  47  89 NW8       29.89F
DOUGLAS        PTCLDY    52  48  86 CALM      29.88F

$$
WYZ021-027>030-104>119-310900-
SOUTHERN WYOMING

CITY           SKY/WX    TMP DP  RH WIND       PRES   REMARKS
EVANSTON       CLOUDY    58  41  53 VRB5      30.01S
KEMMERER       CLOUDY    50  39  66 N17G23    30.03S
FORT BRIDGER   FAIR      59  42  52 NW8       30.02R
ROCK SPRINGS   CLOUDY    53  46  77 S10       29.97F
DIXON          LGT RAIN  55  47  74 W8        30.02R
RAWLINS        TSTM      51  47  86 W26G44    30.05R FOG
SARATOGA       FAIR      54  43  66 SE12      29.99F
LARAMIE        MOCLDY    47  44  90 S6        30.02F
CHEYENNE       MOCLDY    56  46  69 NW3       29.98F
TORRINGTON     MOCLDY    58  51  78 N5        29.85F
PINE BLUFFS    FAIR      54  50  87 S3        29.92F

$$



USA.gov is the U.S. government's official web portal to all federal, state and local government web resources and services.